Change the Weather History Date:

Monday, March 26, 2012

  Actual Average Record
Temperature  
Mean Temperature 38 °F -  
Max Temperature 44 °F 48 °F 75 °F (2007)
Min Temperature 32 °F 31 °F 5 °F (2001)
Degree Days  
Heating Degree Days 27    
Moisture  
Dew Point 24 °F    
Average Humidity 60    
Maximum Humidity 76    
Minimum Humidity 35    
Precipitation  
Precipitation 0.00 in - - ()
Sea Level Pressure  
Sea Level Pressure 30.28 in    
Wind  
Wind Speed 8 mph (NNE)    
Max Wind Speed 13 mph    
Max Gust Speed 22 mph    
Visibility 10 miles    
Events      
Averages and records for this station are not official NWS values.
T = Trace of Precipitation, MM = Missing Value Source: NWS Daily Summary

Daily Weather History Graph

Daily Weather History Graph

Search for Another Location

Airport or City:

Trip Planner

Search our weather history database for the weather conditions in past years. The results will help you decide how hot, cold, wet, or windy it might be!

Date:

Astronomy

Mar. 26, 2012 Rise Set
Actual Time 7:27 AM EDT 7:55 PM EDT
Civil Twilight 6:59 AM EDT 8:24 PM EDT
Nautical Twilight 6:26 AM EDT 8:57 PM EDT
Astronomical Twilight 5:52 AM EDT 9:31 PM EDT
Moon 9:10 AM EDT (3/26) No Moon Set
Length of Visible Light 13h 24m
Length of Day
12h 27m
Waxing Crescent, 14% of the Moon is Illuminated
Mar 26
Waxing Crescent
Mar 30
First Quarter
Apr 6
Full
Apr 13
Last Quarter
Apr 21
New

Hourly Weather History & Observations

Time (EDT) Temp. Windchill Dew Point Humidity Pressure Visibility Wind Dir Wind Speed Gust Speed Precip Events Conditions
12:14 AM 44.8 °F 41.0 °F 30.7 °F 58% 30.10 in 10.0 mi NNW 6.9 mph - N/A   Clear
12:35 AM 44.1 °F 40.1 °F 31.6 °F 62% 30.10 in 10.0 mi NNW 6.9 mph - N/A   Clear
12:54 AM 43.3 °F 38.1 °F 32.0 °F 64% 30.11 in 10.0 mi NNW 9.2 mph - N/A   Clear
1:14 AM 42.8 °F 36.2 °F 32.0 °F 66% 30.11 in 10.0 mi NNW 12.7 mph 18.4 mph N/A   Clear
1:35 AM 41.9 °F 36.3 °F 31.5 °F 66% 30.12 in 10.0 mi North 9.2 mph - N/A   Clear
1:54 AM 41.2 °F 35.5 °F 29.8 °F 64% 30.13 in 10.0 mi North 9.2 mph 18.4 mph N/A   Clear
2:15 AM 39.9 °F 33.4 °F 26.2 °F 58% 30.14 in 10.0 mi North 10.4 mph - N/A   Clear
2:35 AM 38.3 °F 31.9 °F 24.8 °F 58% 30.15 in 10.0 mi North 9.2 mph 17.3 mph N/A   Clear
2:54 AM 37.0 °F 31.0 °F 25.2 °F 62% 30.16 in 10.0 mi North 8.1 mph 16.1 mph N/A   Clear
3:15 AM 36.1 °F 27.7 °F 25.7 °F 66% 30.17 in 10.0 mi North 12.7 mph 17.3 mph N/A   Clear
3:34 AM 35.4 °F 29.0 °F 26.1 °F 69% 30.17 in 10.0 mi North 8.1 mph - N/A   Clear
3:54 AM 34.7 °F 26.9 °F 25.7 °F 70% 30.18 in 10.0 mi North 10.4 mph 16.1 mph N/A   Clear
4:15 AM 34.0 °F 28.0 °F 25.7 °F 72% 30.19 in 10.0 mi North 6.9 mph 17.3 mph N/A   Clear
4:34 AM 33.1 °F 25.5 °F 25.3 °F 73% 30.19 in 10.0 mi North 9.2 mph 16.1 mph N/A   Clear
4:54 AM 32.5 °F 24.8 °F 25.3 °F 75% 30.20 in 10.0 mi North 9.2 mph - N/A   Clear
5:15 AM 32.2 °F 25.8 °F 25.3 °F 76% 30.21 in 10.0 mi North 6.9 mph - N/A   Scattered Clouds
5:34 AM 32.2 °F 27.7 °F 25.5 °F 76% 30.22 in 10.0 mi North 4.6 mph - N/A   Mostly Cloudy
5:55 AM 32.2 °F 25.0 °F 25.5 °F 76% 30.23 in 10.0 mi North 8.1 mph - N/A   Overcast
6:15 AM 32.2 °F 24.4 °F 24.4 °F 73% 30.25 in 10.0 mi NNE 9.2 mph 18.4 mph N/A   Overcast
6:34 AM 32.0 °F 24.8 °F 23.5 °F 71% 30.26 in 10.0 mi North 8.1 mph 17.3 mph N/A   Overcast
6:55 AM 32.0 °F 24.8 °F 23.7 °F 71% 30.26 in 10.0 mi North 8.1 mph 17.3 mph N/A   Overcast
7:14 AM 32.0 °F 24.2 °F 23.7 °F 71% 30.27 in 10.0 mi North 9.2 mph - N/A   Overcast
7:34 AM 32.0 °F 25.6 °F 23.9 °F 72% 30.28 in 10.0 mi North 6.9 mph - N/A   Overcast
7:55 AM 32.0 °F 25.6 °F 23.9 °F 72% 30.29 in 10.0 mi North 6.9 mph - N/A   Overcast
8:14 AM 32.2 °F 25.0 °F 24.4 °F 73% 30.31 in 10.0 mi NNE 8.1 mph - N/A   Overcast
8:34 AM 32.0 °F 24.8 °F 21.4 °F 65% 30.32 in 10.0 mi NNE 8.1 mph 18.4 mph N/A   Scattered Clouds
8:55 AM 32.9 °F 24.1 °F 22.3 °F 65% 30.34 in 10.0 mi NNE 11.5 mph - N/A   Mostly Cloudy
9:14 AM 33.1 °F 24.4 °F 21.9 °F 64% 30.34 in 10.0 mi NE 11.5 mph 17.3 mph N/A   Overcast
9:34 AM 32.0 °F 23.6 °F 21.4 °F 65% 30.35 in 10.0 mi NNE 10.4 mph - N/A   Mostly Cloudy
9:55 AM 32.7 °F 26.4 °F 21.2 °F 63% 30.35 in 10.0 mi North 6.9 mph 16.1 mph N/A   Scattered Clouds
10:14 AM 33.4 °F 25.4 °F 21.7 °F 62% 30.36 in 10.0 mi North 10.4 mph - N/A   Scattered Clouds
10:35 AM 34.3 °F 28.4 °F 22.1 °F 61% 30.36 in 10.0 mi NNE 6.9 mph - N/A   Scattered Clouds
10:54 AM 35.6 °F 27.5 °F 21.6 °F 57% 30.37 in 10.0 mi NE 11.5 mph 17.3 mph N/A   Scattered Clouds
11:15 AM 35.1 °F 28.6 °F 20.8 °F 56% 30.37 in 10.0 mi NE 8.1 mph 16.1 mph N/A   Scattered Clouds
11:34 AM 36.3 °F 30.1 °F 21.9 °F 56% 30.38 in 10.0 mi NE 8.1 mph - N/A   Clear
11:54 AM 36.7 °F 29.9 °F 21.2 °F 54% 30.38 in 10.0 mi North 9.2 mph 17.3 mph N/A   Clear
12:15 PM 37.0 °F 31.0 °F 20.3 °F 51% 30.38 in 10.0 mi NNE 8.1 mph - N/A   Scattered Clouds
12:34 PM 37.6 °F 33.1 °F 21.6 °F 52% 30.39 in 10.0 mi ENE 5.8 mph - N/A   Clear
12:55 PM 38.7 °F 32.9 °F 21.6 °F 50% 30.39 in 10.0 mi NE 8.1 mph - N/A   Clear
1:14 PM 39.2 °F 33.6 °F 21.7 °F 50% 30.39 in 10.0 mi North 8.1 mph - N/A   Clear
1:34 PM 40.1 °F 34.1 °F 22.3 °F 49% 30.38 in 10.0 mi ENE 9.2 mph - N/A   Clear
1:55 PM 40.1 °F 34.1 °F 20.7 °F 46% 30.38 in 10.0 mi North 9.2 mph - N/A   Clear
2:14 PM 40.1 °F 34.1 °F 21.0 °F 47% 30.37 in 10.0 mi NE 9.2 mph - N/A   Clear
2:34 PM 41.2 °F 35.5 °F 21.4 °F 45% 30.37 in 10.0 mi NE 9.2 mph 21.9 mph N/A   Clear
2:55 PM 41.0 °F 39.0 °F 20.8 °F 45% 30.37 in 10.0 mi North 3.5 mph 19.6 mph N/A   Clear
3:14 PM 41.7 °F 37.3 °F 21.4 °F 44% 30.36 in 10.0 mi North 6.9 mph - N/A   Clear
3:34 PM 41.9 °F 39.0 °F 21.2 °F 44% 30.36 in 10.0 mi NE 4.6 mph - N/A   Clear
3:55 PM 42.3 °F 36.8 °F 20.7 °F 42% 30.35 in 10.0 mi NE 9.2 mph - N/A   Clear
4:14 PM 42.1 °F 40.2 °F 19.4 °F 40% 30.36 in 10.0 mi NNE 3.5 mph - N/A   Clear
4:34 PM 42.1 °F 36.6 °F 19.0 °F 40% 30.36 in 10.0 mi NNE 9.2 mph - N/A   Clear
4:55 PM 42.6 °F 40.9 °F 18.1 °F 37% 30.36 in 10.0 mi NNE 3.5 mph - N/A   Clear
5:14 PM 42.4 °F 38.1 °F 16.2 °F 35% 30.36 in 10.0 mi NNE 6.9 mph - N/A   Clear
5:34 PM 42.3 °F 38.6 °F 17.1 °F 36% 30.36 in 10.0 mi North 5.8 mph - N/A   Clear
5:55 PM 42.4 °F 39.6 °F 16.9 °F 36% 30.36 in 10.0 mi North 4.6 mph - N/A   Clear
6:14 PM 42.4 °F 39.6 °F 17.1 °F 36% 30.35 in 10.0 mi NNE 4.6 mph - N/A   Clear
6:35 PM 41.9 °F 37.5 °F 18.1 °F 38% 30.36 in 10.0 mi North 6.9 mph - N/A   Clear
6:54 PM 41.7 °F 37.3 °F 16.5 °F 36% 30.36 in 10.0 mi NE 6.9 mph - N/A   Clear
7:14 PM 40.6 °F 36.7 °F 16.0 °F 37% 30.35 in 10.0 mi NNE 5.8 mph - N/A   Clear
7:35 PM 39.6 °F 35.4 °F 16.3 °F 39% 30.36 in 10.0 mi NNE 5.8 mph - N/A   Clear
7:54 PM 38.5 °F 35.0 °F 15.6 °F 39% 30.36 in 10.0 mi NNE 4.6 mph - N/A   Clear
8:14 PM 37.4 °F 33.8 °F 14.9 °F 40% 30.36 in 10.0 mi NNE 4.6 mph - N/A   Clear
8:34 PM 36.7 °F - 14.7 °F 41% 30.36 in 10.0 mi Calm Calm - N/A   Clear
8:54 PM 35.8 °F 33.0 °F 15.6 °F 44% 30.37 in 10.0 mi NNE 3.5 mph - N/A   Clear
9:15 PM 34.9 °F - 15.4 °F 45% 30.37 in 10.0 mi Calm Calm - N/A   Clear
9:34 PM 34.9 °F 32.0 °F 12.9 °F 40% 30.37 in 10.0 mi NE 3.5 mph - N/A   Clear
9:54 PM 34.0 °F - 13.1 °F 42% 30.38 in 10.0 mi Calm Calm - N/A   Clear
10:15 PM 32.5 °F 28.1 °F 14.9 °F 48% 30.38 in 10.0 mi East 4.6 mph - N/A   Clear
10:34 PM 32.7 °F 29.6 °F 15.6 °F 49% 30.39 in 10.0 mi East 3.5 mph - N/A   Clear
10:54 PM 32.0 °F 28.7 °F 16.3 °F 52% 30.39 in 10.0 mi East 3.5 mph - N/A   Clear
11:15 PM 32.0 °F 27.5 °F 17.1 °F 54% 30.38 in 10.0 mi East 4.6 mph - N/A   Clear
11:34 PM 32.0 °F - 16.7 °F 53% 30.39 in 10.0 mi Calm Calm - N/A   Clear
11:54 PM 31.5 °F 26.8 °F 16.7 °F 54% 30.39 in 10.0 mi East 4.6 mph - N/A   Clear